AZU2811 SBBE-SBCJ

Flight info

Callsign AZU2811
Flight time 1h 4m
Altitude 35000
Route LEMIS UZ26 ORIRO UL540 NUXOD
Aircraft A20N/L-L/2000

Departure

Time 2026-05-08 17:37
Airport Val de Cans/Júlio Cezar Ribeiro International Airport (SBBE)

Arrival

Time 2026-05-08 18:41
Airport Carajás Airport (SBCJ)
Time Latitude Longitude Altitude Speed Heading
2026-05-08 17:21 -1.39095 -48.47887 63 ft 0 kts 276°
2026-05-08 17:22 -1.39096 -48.47886 63 ft 1 kts 276°
2026-05-08 17:22 -1.39096 -48.47872 63 ft 2 kts 270°
2026-05-08 17:22 -1.39097 -48.47857 63 ft 2 kts 272°
2026-05-08 17:23 -1.39097 -48.47842 63 ft 2 kts 271°
2026-05-08 17:23 -1.39102 -48.47829 63 ft 2 kts 328°
2026-05-08 17:23 -1.39112 -48.47826 63 ft 1 kts
2026-05-08 17:23 -1.39119 -48.47827 63 ft 0 kts
2026-05-08 17:26 -1.39118 -48.47827 63 ft 0 kts
2026-05-08 17:26 -1.39115 -48.47827 63 ft 0 kts
2026-05-08 17:26 -1.39109 -48.47826 63 ft 1 kts
2026-05-08 17:27 -1.39088 -48.47825 63 ft 4 kts
2026-05-08 17:27 -1.39050 -48.47821 63 ft 6 kts
2026-05-08 17:27 -1.38996 -48.47816 63 ft 8 kts
2026-05-08 17:27 -1.38929 -48.47811 63 ft 9 kts
2026-05-08 17:28 -1.38867 -48.47805 63 ft 8 kts
2026-05-08 17:28 -1.38807 -48.47799 63 ft 8 kts
2026-05-08 17:28 -1.38752 -48.47793 63 ft 7 kts
2026-05-08 17:28 -1.38699 -48.47792 63 ft 7 kts 339°
2026-05-08 17:29 -1.38677 -48.47837 63 ft 8 kts 272°
2026-05-08 17:29 -1.38677 -48.47899 63 ft 9 kts 269°
2026-05-08 17:29 -1.38678 -48.47966 63 ft 10 kts 269°
2026-05-08 17:29 -1.38680 -48.48040 63 ft 11 kts 269°
2026-05-08 17:30 -1.38682 -48.48121 63 ft 11 kts 269°
2026-05-08 17:30 -1.38682 -48.48199 63 ft 11 kts 266°
2026-05-08 17:30 -1.38728 -48.48263 63 ft 11 kts 224°
2026-05-08 17:30 -1.38788 -48.48322 63 ft 10 kts 226°
2026-05-08 17:31 -1.38808 -48.48346 63 ft 0 kts 235°
2026-05-08 17:33 -1.38810 -48.48349 63 ft 1 kts 237°
2026-05-08 17:33 -1.38815 -48.48361 63 ft 2 kts 256°
2026-05-08 17:34 -1.38817 -48.48369 63 ft 0 kts 258°
2026-05-08 17:34 -1.38817 -48.48370 63 ft 0 kts 258°
2026-05-08 17:34 -1.38818 -48.48378 63 ft 1 kts 264°
2026-05-08 17:35 -1.38820 -48.48394 63 ft 2 kts 265°
2026-05-08 17:35 -1.38821 -48.48417 63 ft 3 kts 267°
2026-05-08 17:35 -1.38822 -48.48446 63 ft 4 kts 271°
2026-05-08 17:35 -1.38805 -48.48474 63 ft 4 kts 334°
2026-05-08 17:36 -1.38790 -48.48473 63 ft 0 kts 31°
2026-05-08 17:36 -1.38641 -48.48330 63 ft 68 kts 45°
2026-05-08 17:36 -1.38138 -48.47823 63 ft 133 kts 45°
2026-05-08 17:36 -1.37420 -48.47062 415 ft 154 kts 45°
2026-05-08 17:37 -1.36722 -48.46302 1115 ft 151 kts 44°
2026-05-08 17:37 -1.36107 -48.45458 1779 ft 154 kts 73°
2026-05-08 17:37 -1.36262 -48.44386 2202 ft 170 kts 118°
2026-05-08 17:37 -1.37189 -48.43595 2632 ft 187 kts 160°
2026-05-08 17:38 -1.38515 -48.43309 3027 ft 204 kts 169°
2026-05-08 17:38 -1.39989 -48.43094 3416 ft 224 kts 170°
2026-05-08 17:38 -1.41605 -48.42856 3813 ft 246 kts 169°
2026-05-08 17:38 -1.43370 -48.42575 4325 ft 264 kts 169°
2026-05-08 17:39 -1.45245 -48.42260 4893 ft 280 kts 168°
2026-05-08 17:39 -1.47172 -48.41929 5739 ft 284 kts 168°
2026-05-08 17:39 -1.49110 -48.41591 6671 ft 286 kts 168°
2026-05-08 17:39 -1.51058 -48.41248 7593 ft 288 kts 168°
2026-05-08 17:40 -1.53022 -48.40900 8515 ft 290 kts 168°
2026-05-08 17:40 -1.54996 -48.40549 9432 ft 292 kts 168°
2026-05-08 17:40 -1.57009 -48.40191 10340 ft 295 kts 168°
2026-05-08 17:40 -1.59055 -48.39826 10919 ft 309 kts 168°
2026-05-08 17:41 -1.61208 -48.39443 11493 ft 322 kts 168°
2026-05-08 17:41 -1.63433 -48.39050 12339 ft 325 kts 168°
2026-05-08 17:41 -1.65661 -48.38664 13216 ft 327 kts 168°
2026-05-08 17:41 -1.67887 -48.38279 14059 ft 330 kts 168°
2026-05-08 17:42 -1.70150 -48.37887 14927 ft 332 kts 168°
2026-05-08 17:42 -1.72419 -48.37493 15726 ft 335 kts 169°
2026-05-08 17:42 -1.74746 -48.37088 16508 ft 339 kts 169°
2026-05-08 17:42 -1.77126 -48.36674 17281 ft 342 kts 169°
2026-05-08 17:43 -1.79488 -48.36263 18021 ft 346 kts 169°
2026-05-08 17:43 -1.81881 -48.35836 18743 ft 349 kts 168°
2026-05-08 17:43 -1.84275 -48.35385 19380 ft 351 kts 168°
2026-05-08 17:43 -1.86641 -48.34935 19797 ft 354 kts 168°
2026-05-08 17:44 -1.89087 -48.34470 20451 ft 358 kts 168°
2026-05-08 17:44 -1.91551 -48.34003 21161 ft 360 kts 168°
2026-05-08 17:44 -1.94052 -48.33529 21795 ft 364 kts 168°
2026-05-08 17:44 -1.96534 -48.33060 22406 ft 367 kts 168°
2026-05-08 17:45 -1.99050 -48.32584 23010 ft 370 kts 168°
2026-05-08 17:45 -2.01579 -48.32106 23597 ft 373 kts 168°
2026-05-08 17:45 -2.04152 -48.31668 24167 ft 377 kts 171°
2026-05-08 17:45 -2.06734 -48.31325 24719 ft 380 kts 172°
2026-05-08 17:46 -2.09350 -48.30990 25253 ft 382 kts 172°
2026-05-08 17:46 -2.11979 -48.30654 25772 ft 385 kts 172°
2026-05-08 17:46 -2.14648 -48.30315 26281 ft 388 kts 172°
2026-05-08 17:46 -2.17335 -48.29971 26774 ft 391 kts 172°
2026-05-08 17:47 -2.20069 -48.29620 27256 ft 394 kts 172°
2026-05-08 17:47 -2.22783 -48.29272 27718 ft 397 kts 172°
2026-05-08 17:47 -2.25517 -48.28920 28169 ft 399 kts 172°
2026-05-08 17:47 -2.27350 -48.28684 28463 ft 401 kts 172°
2026-05-08 17:48 -2.31017 -48.28212 29032 ft 404 kts 172°
2026-05-08 17:48 -2.33826 -48.27850 29447 ft 407 kts 172°
2026-05-08 17:48 -2.36632 -48.27488 29850 ft 409 kts 172°
2026-05-08 17:48 -2.39477 -48.27121 30244 ft 412 kts 172°
2026-05-08 17:49 -2.42316 -48.26756 30624 ft 414 kts 172°
2026-05-08 17:49 -2.45177 -48.26387 30994 ft 416 kts 172°
2026-05-08 17:49 -2.48043 -48.26017 31361 ft 418 kts 172°
2026-05-08 17:49 -2.50897 -48.25648 31815 ft 417 kts 172°
2026-05-08 17:50 -2.53749 -48.25280 32299 ft 416 kts 173°
2026-05-08 17:50 -2.56600 -48.24912 32755 ft 414 kts 173°
2026-05-08 17:50 -2.59472 -48.24541 33180 ft 413 kts 173°
2026-05-08 17:50 -2.62315 -48.24174 33543 ft 413 kts 173°
2026-05-08 17:51 -2.65147 -48.23808 33849 ft 415 kts 173°
2026-05-08 17:51 -2.68000 -48.23439 34139 ft 416 kts 173°
2026-05-08 17:51 -2.70917 -48.23062 34430 ft 417 kts 173°
2026-05-08 17:51 -2.73814 -48.22687 34710 ft 418 kts 173°
2026-05-08 17:52 -2.76592 -48.22328 34894 ft 420 kts 173°
2026-05-08 17:52 -2.79523 -48.21950 34903 ft 420 kts 173°
2026-05-08 17:53 -2.88332 -48.21336 34913 ft 420 kts 180°
2026-05-08 17:53 -2.94273 -48.21746 34916 ft 421 kts 187°
2026-05-08 17:54 -3.00066 -48.22555 34926 ft 421 kts 187°
2026-05-08 17:54 -3.05853 -48.23379 34942 ft 421 kts 187°
2026-05-08 17:55 -3.11713 -48.24209 34956 ft 422 kts 187°
2026-05-08 17:55 -3.17500 -48.25023 34962 ft 422 kts 187°
2026-05-08 17:56 -3.23325 -48.25845 34965 ft 422 kts 187°
2026-05-08 17:56 -3.29124 -48.26663 34966 ft 422 kts 187°
2026-05-08 17:57 -3.34955 -48.27486 34966 ft 422 kts 187°
2026-05-08 17:57 -3.40785 -48.28310 34966 ft 421 kts 187°
2026-05-08 17:58 -3.46599 -48.29132 34966 ft 421 kts 187°
2026-05-08 17:58 -3.52451 -48.29959 34966 ft 421 kts 187°
2026-05-08 17:59 -3.58234 -48.30777 34966 ft 421 kts 187°
2026-05-08 17:59 -3.64018 -48.31594 34966 ft 421 kts 187°
2026-05-08 18:00 -3.69827 -48.32416 34966 ft 421 kts 187°
2026-05-08 18:00 -3.78534 -48.33647 34966 ft 421 kts 187°
2026-05-08 18:01 -3.84340 -48.34468 34966 ft 421 kts 187°
2026-05-08 18:01 -3.90128 -48.35287 34966 ft 421 kts 187°
2026-05-08 18:02 -3.95013 -48.35978 34966 ft 421 kts 187°
2026-05-08 18:02 -4.01771 -48.36934 34966 ft 421 kts 187°
2026-05-08 18:03 -4.07585 -48.37757 34965 ft 422 kts 187°
2026-05-08 18:03 -4.13412 -48.38580 34961 ft 422 kts 187°
2026-05-08 18:04 -4.19199 -48.39395 34954 ft 422 kts 187°
2026-05-08 18:04 -4.25027 -48.40216 34947 ft 422 kts 187°
2026-05-08 18:05 -4.30847 -48.41038 34936 ft 422 kts 187°
2026-05-08 18:05 -4.36644 -48.41857 34925 ft 422 kts 187°
2026-05-08 18:06 -4.42472 -48.42681 34918 ft 423 kts 187°
2026-05-08 18:06 -4.48287 -48.43438 34914 ft 422 kts 185°
2026-05-08 18:07 -4.54127 -48.43651 34913 ft 422 kts 179°
2026-05-08 18:07 -4.60028 -48.43574 34913 ft 422 kts 179°
2026-05-08 18:08 -4.65869 -48.43490 34913 ft 422 kts 179°
2026-05-08 18:08 -4.71743 -48.43409 34913 ft 422 kts 179°
2026-05-08 18:09 -4.77664 -48.43328 34913 ft 422 kts 179°
2026-05-08 18:09 -4.83578 -48.43247 34913 ft 422 kts 179°
2026-05-08 18:10 -4.89487 -48.43165 34913 ft 422 kts 179°
2026-05-08 18:10 -4.95404 -48.43084 34913 ft 422 kts 179°
2026-05-08 18:11 -5.01296 -48.43411 34914 ft 422 kts 190°
2026-05-08 18:11 -5.06835 -48.45289 34915 ft 424 kts 205°
2026-05-08 18:12 -5.11719 -48.48712 34910 ft 428 kts 221°
2026-05-08 18:12 -5.15830 -48.53108 34899 ft 430 kts 226°
2026-05-08 18:13 -5.19836 -48.57590 34891 ft 430 kts 225°
2026-05-08 18:13 -5.23853 -48.62062 34888 ft 430 kts 225°
2026-05-08 18:14 -5.27881 -48.66538 34667 ft 433 kts 226°
2026-05-08 18:14 -5.29925 -48.68824 33846 ft 441 kts 226°
2026-05-08 18:14 -5.31970 -48.71112 33069 ft 443 kts 226°
2026-05-08 18:15 -5.34046 -48.73432 32326 ft 443 kts 226°
2026-05-08 18:15 -5.36082 -48.75704 31607 ft 444 kts 225°
2026-05-08 18:15 -5.38157 -48.78016 30886 ft 443 kts 225°
2026-05-08 18:15 -5.40229 -48.80323 30401 ft 438 kts 225°
2026-05-08 18:16 -5.42286 -48.82613 29917 ft 432 kts 225°
2026-05-08 18:16 -5.44290 -48.84842 29442 ft 427 kts 225°
2026-05-08 18:16 -5.46279 -48.87054 28965 ft 423 kts 225°
2026-05-08 18:16 -5.48248 -48.89244 28491 ft 418 kts 225°
2026-05-08 18:17 -5.50183 -48.91394 28023 ft 414 kts 225°
2026-05-08 18:17 -5.52130 -48.93559 27551 ft 410 kts 225°
2026-05-08 18:17 -5.54034 -48.95676 27087 ft 407 kts 225°
2026-05-08 18:17 -5.55926 -48.97780 26623 ft 403 kts 225°
2026-05-08 18:18 -5.57800 -48.99863 26148 ft 400 kts 225°
2026-05-08 18:18 -5.59683 -49.01956 25666 ft 397 kts 225°
2026-05-08 18:18 -5.61545 -49.04025 25185 ft 395 kts 225°
2026-05-08 18:18 -5.63362 -49.06045 24714 ft 393 kts 225°
2026-05-08 18:19 -5.65184 -49.08070 24240 ft 391 kts 225°
2026-05-08 18:19 -5.67002 -49.10091 23770 ft 389 kts 225°
2026-05-08 18:19 -5.68794 -49.12084 23306 ft 387 kts 225°
2026-05-08 18:19 -5.70590 -49.14084 22844 ft 385 kts 225°
2026-05-08 18:20 -5.72349 -49.16102 22376 ft 384 kts 231°
2026-05-08 18:20 -5.73726 -49.18387 21914 ft 385 kts 244°
2026-05-08 18:20 -5.74563 -49.20958 21458 ft 385 kts 256°
2026-05-08 18:20 -5.75049 -49.23574 21017 ft 383 kts 259°
2026-05-08 18:21 -5.75479 -49.26226 20573 ft 381 kts 259°
2026-05-08 18:21 -5.75902 -49.28851 20137 ft 379 kts 259°
2026-05-08 18:21 -5.76326 -49.31426 19709 ft 376 kts 259°
2026-05-08 18:21 -5.76759 -49.34014 19279 ft 374 kts 259°
2026-05-08 18:22 -5.77195 -49.36586 18851 ft 371 kts 259°
2026-05-08 18:22 -5.77629 -49.39130 18428 ft 369 kts 259°
2026-05-08 18:22 -5.78059 -49.41638 18011 ft 366 kts 259°
2026-05-08 18:22 -5.78500 -49.44209 17583 ft 363 kts 259°
2026-05-08 18:23 -5.78932 -49.46716 17165 ft 361 kts 259°
2026-05-08 18:23 -5.79358 -49.49191 16755 ft 358 kts 259°
2026-05-08 18:23 -5.79784 -49.51670 16351 ft 356 kts 259°
2026-05-08 18:23 -5.80205 -49.54113 15952 ft 353 kts 259°
2026-05-08 18:24 -5.80624 -49.56549 15555 ft 351 kts 259°
2026-05-08 18:24 -5.81039 -49.58966 15160 ft 348 kts 259°
2026-05-08 18:24 -5.81452 -49.61364 14768 ft 346 kts 259°
2026-05-08 18:24 -5.81861 -49.63746 14378 ft 343 kts 259°
2026-05-08 18:25 -5.82265 -49.66101 13988 ft 341 kts 259°
2026-05-08 18:25 -5.82661 -49.68418 13602 ft 338 kts 259°
2026-05-08 18:25 -5.83062 -49.70765 13234 ft 335 kts 259°
2026-05-08 18:25 -5.83450 -49.73032 13166 ft 320 kts 259°
2026-05-08 18:26 -5.83824 -49.75211 13112 ft 305 kts 259°
2026-05-08 18:26 -5.84180 -49.77286 13059 ft 292 kts 259°
2026-05-08 18:26 -5.84522 -49.79276 12914 ft 284 kts 259°
2026-05-08 18:26 -5.84860 -49.81235 12593 ft 283 kts 259°
2026-05-08 18:27 -5.85201 -49.83217 12285 ft 281 kts 259°
2026-05-08 18:27 -5.85424 -49.84513 12086 ft 280 kts 259°
2026-05-08 18:27 -5.85863 -49.87072 11714 ft 277 kts 259°
2026-05-08 18:27 -5.86190 -49.88980 11433 ft 274 kts 259°
2026-05-08 18:28 -5.86515 -49.90871 11149 ft 272 kts 259°
2026-05-08 18:28 -5.86838 -49.92756 10864 ft 270 kts 259°
2026-05-08 18:28 -5.87159 -49.94627 10580 ft 269 kts 259°
2026-05-08 18:28 -5.87476 -49.96473 10299 ft 267 kts 259°
2026-05-08 18:29 -5.87791 -49.98310 10019 ft 266 kts 259°
2026-05-08 18:29 -5.88106 -50.00151 9739 ft 264 kts 259°
2026-05-08 18:29 -5.88418 -50.01967 9463 ft 263 kts 259°
2026-05-08 18:29 -5.88732 -50.03799 9183 ft 261 kts 259°
2026-05-08 18:30 -5.89042 -50.05598 8909 ft 260 kts 259°
2026-05-08 18:30 -5.89350 -50.07393 8636 ft 258 kts 259°
2026-05-08 18:30 -5.89654 -50.09169 8365 ft 257 kts 259°
2026-05-08 18:30 -5.89958 -50.10944 8094 ft 256 kts 259°
2026-05-08 18:31 -5.90261 -50.12715 7824 ft 254 kts 259°
2026-05-08 18:31 -5.90564 -50.14489 7554 ft 253 kts 259°
2026-05-08 18:31 -5.90924 -50.16225 7261 ft 251 kts 247°
2026-05-08 18:31 -5.91890 -50.17652 6971 ft 243 kts 217°
2026-05-08 18:32 -5.93324 -50.18492 6729 ft 235 kts 202°
2026-05-08 18:32 -5.94826 -50.19152 6469 ft 231 kts 200°
2026-05-08 18:32 -5.96287 -50.19785 6220 ft 227 kts 201°
2026-05-08 18:32 -5.97732 -50.20428 5973 ft 224 kts 200°
2026-05-08 18:33 -5.99232 -50.20874 5711 ft 218 kts 184°
2026-05-08 18:33 -6.00710 -50.20887 5519 ft 209 kts 172°
2026-05-08 18:33 -6.02154 -50.20722 5505 ft 206 kts 170°
2026-05-08 18:33 -6.03583 -50.20537 5498 ft 206 kts 170°
2026-05-08 18:34 -6.05023 -50.20356 5547 ft 200 kts 170°
2026-05-08 18:34 -6.06345 -50.20194 5533 ft 185 kts 170°
2026-05-08 18:34 -6.07589 -50.20046 5480 ft 167 kts 170°
2026-05-08 18:34 -6.08696 -50.19915 5493 ft 155 kts 170°
2026-05-08 18:35 -6.09743 -50.19791 5482 ft 145 kts 169°
2026-05-08 18:35 -6.10751 -50.19671 5475 ft 144 kts 169°
2026-05-08 18:35 -6.11746 -50.19551 5285 ft 143 kts 167°
2026-05-08 18:35 -6.12671 -50.19211 5088 ft 139 kts 144°
2026-05-08 18:36 -6.13360 -50.18533 4907 ft 137 kts 117°
2026-05-08 18:36 -6.13623 -50.17607 4742 ft 137 kts 96°
2026-05-08 18:36 -6.13643 -50.16641 4574 ft 136 kts 89°
2026-05-08 18:36 -6.13583 -50.15682 4576 ft 136 kts 86°
2026-05-08 18:37 -6.13491 -50.14726 4575 ft 136 kts 85°
2026-05-08 18:37 -6.13383 -50.13770 4505 ft 137 kts 84°
2026-05-08 18:37 -6.13268 -50.12819 4314 ft 136 kts 84°
2026-05-08 18:37 -6.13152 -50.11869 4135 ft 136 kts 84°
2026-05-08 18:38 -6.13036 -50.10919 3955 ft 135 kts 84°
2026-05-08 18:38 -6.12921 -50.09973 3774 ft 135 kts 84°
2026-05-08 18:38 -6.12809 -50.09042 3597 ft 134 kts 84°
2026-05-08 18:38 -6.12697 -50.08109 3418 ft 134 kts 84°
2026-05-08 18:39 -6.12584 -50.07172 3239 ft 134 kts 84°
2026-05-08 18:39 -6.12474 -50.06244 3062 ft 133 kts 84°
2026-05-08 18:39 -6.12362 -50.05310 2883 ft 133 kts 84°
2026-05-08 18:39 -6.12253 -50.04388 2707 ft 133 kts 85°
2026-05-08 18:40 -6.12143 -50.03469 2531 ft 132 kts 85°
2026-05-08 18:40 -6.12033 -50.02541 2370 ft 133 kts 85°
2026-05-08 18:40 -6.11931 -50.01627 2158 ft 131 kts 84°
2026-05-08 18:40 -6.11827 -50.00730 2086 ft 119 kts 83°
2026-05-08 18:41 -6.11744 -50.00067 2083 ft 70 kts 83°
2026-05-08 18:41 -6.11706 -49.99750 2086 ft 24 kts 84°
2026-05-08 18:41 -6.11687 -49.99591 2084 ft 20 kts 71°
2026-05-08 18:41 -6.11675 -49.99519 2083 ft 4 kts 205°
2026-05-08 18:42 -6.11681 -49.99549 2083 ft 4 kts 262°
2026-05-08 18:42 -6.11685 -49.99576 2084 ft 3 kts 262°
2026-05-08 18:42 -6.11688 -49.99598 2085 ft 2 kts 262°
2026-05-08 18:42 -6.11690 -49.99616 2085 ft 2 kts 262°
2026-05-08 18:43 -6.11693 -49.99635 2085 ft 4 kts 263°
2026-05-08 18:43 -6.11698 -49.99682 2086 ft 8 kts 265°
2026-05-08 18:43 -6.11706 -49.99757 2086 ft 11 kts 264°
2026-05-08 18:43 -6.11715 -49.99842 2086 ft 12 kts 264°
2026-05-08 18:44 -6.11724 -49.99926 2086 ft 11 kts 264°
2026-05-08 18:44 -6.11733 -50.00010 2085 ft 13 kts 263°
2026-05-08 18:44 -6.11742 -50.00088 2082 ft 10 kts 263°
2026-05-08 18:44 -6.11749 -50.00145 2082 ft 7 kts 266°
2026-05-08 18:45 -6.11705 -50.00188 2083 ft 12 kts
2026-05-08 18:45 -6.11620 -50.00194 2092 ft 11 kts 350°
2026-05-08 18:45 -6.11560 -50.00162 2098 ft 10 kts 71°
2026-05-08 18:45 -6.11518 -50.00127 2103 ft 3 kts 33°
2026-05-08 18:46 -6.11515 -50.00125 2103 ft 0 kts 33°
2026-05-08 18:46 -6.11515 -50.00126 2103 ft 0 kts 33°